This demonstration page uses our WeatherBlox Daily Observations layout. Learn more.

Left ArrowRight Arrow

Hourly Observations for September 5, 2019

Temp ( °F °C ) Dew Point ( °F °C ) Humidity (%) Winds ( mph kmh ) Pressure ( in mb ) Visibility ( mi km ) Precip ( " mm )
12:54 am 00:54 Clear 68 20 59 15 73 73 SSE 8 13 30.06 1018 10 16 0.00 0.00
1:54 am 01:54 Clear 68 20 59 15 73 73 SSE 9 15 30.06 1018 10 16 0.00 0.00
2:54 am 02:54 Clear 68 20 60 15.6 76 76 SSE 9 15 30.04 1017 10 16 0.00 0.00
4:54 am 04:54 Clear 66 18.9 60 15.6 81 81 S 8 13 30.03 1017 10 16 0.00 0.00
5:54 am 05:54 Partly Cloudy 66 18.9 61 16.1 84 84 S 13 20 30.01 1016 10 16 0.00 0.00
6:54 am 06:54 Clear 66 18.9 62 16.7 87 87 S 13 20 30.01 1016 10 16 0.00 0.00
7:54 am 07:54 Sunny 68 20 64 17.8 87 87 S 12 19 29.99 1016 10 16 0.00 0.00
8:54 am 08:54 Sunny 75 23.9 66 18.9 74 74 S 14 22 29.98 1015 10 16 0.00 0.00
9:54 am 09:54 Sunny 80 26.7 67 19.4 64 64 SSW 15 24 29.96 1015 10 16 0.00 0.00
10:54 am 10:54 Sunny 83 28.3 66 18.9 57 57 SSW 20 31 29.95 1014 10 16 0.00 0.00
11:54 am 11:54 Sunny 87 30.6 67 19.4 51 51 SW 18 30 29.93 1014 10 16 0.00 0.00
12:54 pm 12:54 Sunny 90 32.2 67 19.4 47 47 SSW 13 20 29.93 1014 10 16 0.00 0.00
1:54 pm 13:54 Sunny 92 33.3 68 20 46 46 S 12 19 29.93 1014 10 16 0.00 0.00
2:54 pm 14:54 Sunny 93 33.9 68 20 44 44 S 12 19 29.92 1013 10 16 0.00 0.00
3:54 pm 15:54 Sunny 94 34.4 69 20.6 44 44 S 9 15 29.92 1013 10 16 0.00 0.00
4:54 pm 16:54 Sunny 92 33.3 69 20.6 47 47 S 10 17 29.90 1013 10 16 0.00 0.00
5:54 pm 17:54 Sunny 92 33.3 71 21.7 51 51 S 12 19 29.90 1013 10 16 0.00 0.00
6:54 pm 18:54 Sunny 89 31.7 71 21.7 55 55 S 9 15 29.90 1013 10 16 0.00 0.00
7:54 pm 19:54 Clear 85 29.4 72 22.2 65 65 SSW 8 13 29.91 1013 10 16 0.00 0.00
8:54 pm 20:54 Clear 79 26.1 71 21.7 77 77 N 7 11 29.93 1014 10 16 0.00 0.00
9:54 pm 21:54 Clear 79 26.1 72 22.2 79 79 N 7 11 29.96 1014 10 16 0.00 0.00
10:54 pm 22:54 Clear 77 25 72 22.2 85 85 Calm 29.97 1015 10 16 0.00 0.00
11:54 pm 23:54 Clear 75 23.9 72 22.2 90 90 N 7 11 29.98 1015 9 14 0.00 0.00

Powered by AerisWeather